STARLINK-31407, 59250

Orbit data source: Space-Track

STARLINK-31407, 59250 is a payload satellite owned by SpaceX/Seattle (US) in LEO that was launched on Sat, 16 Mar 2024 UTC via an FALCON 9 launch vehicle from the Air Force Eastern Test Range (AFETR). Payload-class satellites include a variety of spacecraft equipped with specific instruments for various scientific and technological missions. These include communications satellites like Starlink; space stations such as the ISS; scientific satellites like the Hubble; Earth observation satellites from companies like Planet Labs, Umbra, and HawkEye 360; GPS; miniature CubeSats for education and research; and military/defense satellites.

Loading next visibility...
Identifier
59250, 2024-049V
Orbit
LEO
Country
Flag of USUS
Related business
Manufacturer
SpaceX/Seattle
Mission
Operational Commercial Communications
Bus & Motor
STARLINK V2M, Unknown motor
Mass
730 kg wet, ~700 kg dry
Launch date (UTC)
2024-03-16 (2 years ago)
Launch vehicle
FALCON 9
Launch site
Air Force Eastern Test Range (AFETR)
Object type
Payload
Rocket body
Debris
Shape & HBR
Box + 2 Pan, 17.7 m
Radar Cross Section
33.884 m², Large (>1 m²)

Expand to show TLE details & history
Last TLE update: 2 days ago

TLE from 2 days ago
0 STARLINK-31407
1 59250U 24049V   26171.26640971  .00001863  00000-0  77209-4 0  9999
2 59250  43.0033 273.0077 0001217 267.5937  92.4775 15.27572372128211
Epoch: 2026-06-20T06:23Z
TLE epoch observation values (Epoch: 2026-06-20T06:23:37.798Z)
Latitude
-0.00006°
Longitude
-91.38336°
Altitude
482.884 km
Speed
7.626 km/s
True Right ascension
18h 12m 01s
True Declination
0° 00' 00"
Sunlit
Object was in full shadow at epoch
Visualization orbit readout
Latitude
Unknown
Longitude
Unknown
Altitude
Unknown
Speed
Unknown
Apparent Right ascension
Unknown
Apparent Declination
Unknown
Sunlit
N/A
Visualization observer readout
Local Sidereal Time
21:31:09
Azimuth
Unknown
Elevation
Unknown
Doppler factor
Unknown
Orbital elements
Apogee altitude
485.852 km
Perigee altitude
484.181 km
Semi-major axis
6,863.154 km
Eccentricity
0.00012
Inclination
43.0033°
RAAN
273.0077°
Arg. of periapsis
267.5937°
True anomaly
92.49143°
Mean anomaly
92.4775°
Eccentric anomaly
92.48447°
Mean motion
3.81731 °/min
Orbital period
94.31 mins
BSTAR
0.000077209
Loading maneuver chart data...
Computing Atmospheric mass density...
Loading historical data...
Loading historical data...
Loading historical data...
Loading historical data...
Loading historical data...
Loading historical data...
Loading historical data...

Documentation

Showing up to 5 results
|